Time,TemperatureF,DewpointF,PressureIn,WindDirection,WindDirectionDegrees,WindSpeedMPH,WindSpeedGustMPH,Humidity,HourlyPrecipIn,Conditions,Clouds,dailyrainin,SolarRadiationWatts/m^2,SoftwareType,DateUTC
2013-03-22 00:00:00,25.1,24.1,29.91,NNE,27,4.0,6.0,96,0.00,,SCT003,0.00,0.00,VWS V14.01,2013-03-22 06:00:00,
2013-03-22 00:02:00,25.1,24.1,29.91,NNE,29,4.0,5.0,96,0.00,,,0.00,0.00,VWS V14.01,2013-03-22 06:02:00,
2013-03-22 00:07:00,25.1,24.1,29.90,NE,34,7.0,7.0,96,0.00,,,0.00,0.00,VWS V14.01,2013-03-22 06:07:00,
2013-03-22 00:12:00,25.0,24.0,29.90,NNE,14,4.0,7.0,96,0.00,,,0.00,0.00,VWS V14.01,2013-03-22 06:12:00,
2013-03-22 00:17:00,25.0,24.0,29.91,NNE,30,4.0,7.0,96,0.00,,,0.00,0.00,VWS V14.01,2013-03-22 06:17:00,
2013-03-22 00:22:00,25.0,24.0,29.91,NNE,32,3.0,7.0,96,0.00,,,0.00,0.00,VWS V14.01,2013-03-22 06:22:00,
2013-03-22 00:27:00,24.9,23.9,29.90,NNE,31,3.0,7.0,96,0.00,,,0.00,0.00,VWS V14.01,2013-03-22 06:27:00,
2013-03-22 00:30:00,24.9,23.9,29.90,NE,44,2.0,7.0,96,0.00,,SCT003,0.00,0.00,VWS V14.01,2013-03-22 06:30:00,
2013-03-22 00:32:00,24.9,23.9,29.90,ENE,61,3.0,3.0,96,0.00,,,0.00,0.00,VWS V14.01,2013-03-22 06:32:00,
2013-03-22 00:37:00,24.9,23.9,29.90,NE,36,1.0,3.0,96,0.00,,,0.00,0.00,VWS V14.01,2013-03-22 06:37:00,
2013-03-22 00:42:00,24.8,23.8,29.90,NNE,33,2.0,4.0,96,0.00,,,0.00,0.00,VWS V14.01,2013-03-22 06:42:00,
2013-03-22 00:47:00,24.8,23.8,29.90,NNE,29,3.0,4.0,96,0.00,,,0.00,0.00,VWS V14.01,2013-03-22 06:47:00,
2013-03-22 00:52:00,24.8,23.8,29.90,NNE,29,2.0,4.0,96,0.00,,,0.00,0.00,VWS V14.01,2013-03-22 06:52:00,
2013-03-22 00:57:00,24.7,23.7,29.90,NNE,19,0.0,4.0,96,0.00,,,0.00,0.00,VWS V14.01,2013-03-22 06:57:00,
2013-03-22 01:00:00,24.7,23.7,29.90,NNE,19,1.0,4.0,96,0.00,,OVC080,0.00,0.00,VWS V14.01,2013-03-22 07:00:00,
2013-03-22 01:03:00,24.7,23.7,29.89,North,10,1.0,2.0,96,0.00,,,0.00,0.00,VWS V14.01,2013-03-22 07:03:00,
2013-03-22 01:08:00,24.7,23.7,29.89,North,10,1.0,2.0,96,0.00,,,0.00,0.00,VWS V14.01,2013-03-22 07:08:00,
2013-03-22 01:13:00,24.7,23.7,29.89,North,10,0.0,2.0,96,0.00,,,0.00,0.00,VWS V14.01,2013-03-22 07:13:00,
2013-03-22 01:18:00,24.6,23.6,29.89,North,10,0.0,2.0,96,0.00,,,0.00,0.00,VWS V14.01,2013-03-22 07:18:00,
2013-03-22 01:23:00,24.6,23.6,29.89,North,10,0.0,2.0,96,0.00,,,0.00,0.00,VWS V14.01,2013-03-22 07:23:00,
2013-03-22 01:28:00,24.7,23.7,29.89,North,10,0.0,2.0,96,0.00,,,0.00,0.00,VWS V14.01,2013-03-22 07:28:00,
2013-03-22 01:30:00,24.6,23.6,29.89,North,10,0.0,2.0,96,0.00,,OVC003,0.00,0.00,VWS V14.01,2013-03-22 07:30:00,
2013-03-22 01:33:00,24.6,23.6,29.89,North,10,0.0,0.0,96,0.00,,,0.00,0.00,VWS V14.01,2013-03-22 07:33:00,
2013-03-22 01:38:00,24.6,23.6,29.89,North,10,0.0,0.0,96,0.00,,,0.00,0.00,VWS V14.01,2013-03-22 07:38:00,
2013-03-22 01:43:00,24.6,23.6,29.89,North,10,0.0,0.0,96,0.00,,,0.00,0.00,VWS V14.01,2013-03-22 07:43:00,
2013-03-22 01:48:00,24.5,23.5,29.89,North,10,0.0,1.0,96,0.00,,,0.00,0.00,VWS V14.01,2013-03-22 07:48:00,
2013-03-22 01:53:00,24.5,23.5,29.89,North,10,0.0,1.0,96,0.00,,,0.00,0.00,VWS V14.01,2013-03-22 07:53:00,
2013-03-22 01:58:00,24.4,23.4,29.89,North,10,0.0,1.0,96,0.00,,,0.00,0.00,VWS V14.01,2013-03-22 07:58:00,
2013-03-22 02:00:00,24.4,23.4,29.89,North,10,0.0,1.0,96,0.00,,OVC003,0.00,0.00,VWS V14.01,2013-03-22 08:00:00,
2013-03-22 02:03:00,24.4,23.4,29.89,North,10,0.0,0.0,96,0.00,,OVC022,0.00,0.00,VWS V14.01,2013-03-22 08:03:00,
2013-03-22 02:08:00,24.4,23.4,29.89,West,264,2.0,2.0,96,0.00,,OVC022,0.00,0.00,VWS V14.01,2013-03-22 08:08:00,
2013-03-22 02:13:00,24.1,23.1,29.89,SW,218,1.0,3.0,96,0.00,,OVC022,0.00,0.00,VWS V14.01,2013-03-22 08:13:00,
2013-03-22 02:18:00,23.8,22.8,29.90,SW,230,2.0,3.0,96,0.00,,OVC022,0.00,0.00,VWS V14.01,2013-03-22 08:18:00,
2013-03-22 02:23:00,23.6,22.6,29.89,SW,220,2.0,3.0,96,0.00,,OVC022,0.00,0.00,VWS V14.01,2013-03-22 08:23:00,
2013-03-22 02:28:00,23.6,22.6,29.90,SW,214,1.0,3.0,96,0.00,,OVC022,0.00,0.00,VWS V14.01,2013-03-22 08:28:00,
2013-03-22 02:30:00,23.6,22.6,29.89,SW,214,0.0,3.0,96,0.00,,OVC003,0.00,0.00,VWS V14.01,2013-03-22 08:30:00,
2013-03-22 02:33:00,23.6,22.6,29.89,SW,214,0.0,0.0,96,0.00,,SCT004,0.00,0.00,VWS V14.01,2013-03-22 08:33:00,
2013-03-22 02:38:00,23.5,22.5,29.89,SW,214,0.0,1.0,96,0.00,,SCT004,0.00,0.00,VWS V14.01,2013-03-22 08:38:00,
2013-03-22 02:43:00,23.0,22.0,29.90,SSW,212,1.0,3.0,96,0.00,,SCT004,0.00,0.00,VWS V14.01,2013-03-22 08:43:00,
2013-03-22 02:48:00,22.3,21.1,29.90,SSW,196,0.0,4.0,95,0.00,,SCT004,0.00,0.00,VWS V14.01,2013-03-22 08:48:00,
2013-03-22 02:53:00,21.9,20.7,29.90,SSW,196,1.0,4.0,95,0.00,,SCT004,0.00,0.00,VWS V14.01,2013-03-22 08:53:00,
2013-03-22 02:58:00,21.9,20.7,29.90,SSW,198,2.0,4.0,95,0.00,,SCT004,0.00,0.00,VWS V14.01,2013-03-22 08:58:00,
2013-03-22 03:00:00,22.0,20.8,29.89,SSW,197,1.0,4.0,95,0.00,,OVC003,0.00,0.00,VWS V14.01,2013-03-22 09:00:00,
2013-03-22 03:03:00,22.0,20.8,29.90,SSW,202,3.0,3.0,95,0.00,,OVC003,0.00,0.00,VWS V14.01,2013-03-22 09:03:00,
2013-03-22 03:08:00,22.1,20.9,29.90,SW,219,2.0,4.0,95,0.00,,OVC003,0.00,0.00,VWS V14.01,2013-03-22 09:08:00,
2013-03-22 03:13:00,22.3,21.1,29.90,SW,217,1.0,4.0,95,0.00,,OVC003,0.00,0.00,VWS V14.01,2013-03-22 09:13:00,
2013-03-22 03:18:00,22.2,21.0,29.90,SW,217,1.0,4.0,95,0.00,,OVC003,0.00,0.00,VWS V14.01,2013-03-22 09:18:00,
2013-03-22 03:23:00,22.3,21.1,29.90,SW,217,0.0,1.0,95,0.00,,OVC003,0.00,0.00,VWS V14.01,2013-03-22 09:23:00,
2013-03-22 03:28:00,22.1,20.9,29.90,SW,217,0.0,1.0,95,0.00,,OVC003,0.00,0.00,VWS V14.01,2013-03-22 09:28:00,
2013-03-22 03:30:00,21.9,20.7,29.90,SW,217,0.0,2.0,95,0.00,,OVC080,0.00,0.00,VWS V14.01,2013-03-22 09:30:00,
2013-03-22 03:33:00,21.8,20.6,29.90,SSW,192,1.0,3.0,95,0.00,,SCT003,0.00,0.00,VWS V14.01,2013-03-22 09:33:00,
2013-03-22 03:38:00,21.6,20.4,29.90,SSW,194,1.0,3.0,95,0.00,,SCT003,0.00,0.00,VWS V14.01,2013-03-22 09:38:00,
2013-03-22 03:43:00,21.6,20.4,29.90,SW,227,3.0,4.0,95,0.00,,SCT003,0.00,0.00,VWS V14.01,2013-03-22 09:43:00,
2013-03-22 03:48:00,21.9,20.7,29.89,WSW,238,0.0,4.0,95,0.00,,SCT003,0.00,0.00,VWS V14.01,2013-03-22 09:48:00,
2013-03-22 03:53:00,21.9,20.7,29.89,WSW,238,0.0,4.0,95,0.00,,SCT003,0.00,0.00,VWS V14.01,2013-03-22 09:53:00,
2013-03-22 03:58:00,21.6,20.4,29.89,WSW,238,0.0,4.0,95,0.00,,SCT003,0.00,0.00,VWS V14.01,2013-03-22 09:58:00,
2013-03-22 04:00:00,21.4,20.2,29.89,WSW,237,0.0,4.0,95,0.00,,OVC080,0.00,0.00,VWS V14.01,2013-03-22 10:00:00,
2013-03-22 04:03:00,21.3,20.1,29.91,WSW,237,0.0,0.0,95,0.00,,,0.00,0.00,VWS V14.01,2013-03-22 10:03:00,
2013-03-22 04:08:00,21.2,20.0,29.91,WSW,237,0.0,2.0,95,0.00,,,0.00,0.00,VWS V14.01,2013-03-22 10:08:00,
2013-03-22 04:13:00,21.3,20.1,29.91,WSW,238,0.0,2.0,95,0.00,,,0.00,0.00,VWS V14.01,2013-03-22 10:13:00,
2013-03-22 04:18:00,21.3,20.1,29.90,SSW,210,1.0,3.0,95,0.00,,,0.00,0.00,VWS V14.01,2013-03-22 10:18:00,
2013-03-22 04:23:00,20.6,19.4,29.91,South,176,1.0,5.0,95,0.00,,,0.00,0.00,VWS V14.01,2013-03-22 10:23:00,
2013-03-22 04:28:00,20.3,19.1,29.92,SSW,194,1.0,5.0,95,0.00,,,0.00,0.00,VWS V14.01,2013-03-22 10:28:00,
2013-03-22 04:30:00,20.3,19.1,29.92,South,175,2.0,5.0,95,0.00,,OVC080,0.00,0.00,VWS V14.01,2013-03-22 10:30:00,
2013-03-22 04:33:00,20.3,19.1,29.92,SSE,165,0.0,3.0,95,0.00,,,0.00,0.00,VWS V14.01,2013-03-22 10:33:00,
2013-03-22 04:38:00,20.3,19.1,29.92,South,178,1.0,3.0,95,0.00,,,0.00,0.00,VWS V14.01,2013-03-22 10:38:00,
2013-03-22 04:43:00,19.2,17.8,29.91,West,279,1.0,3.0,94,0.00,,,0.00,0.00,VWS V14.01,2013-03-22 10:43:00,
2013-03-22 04:48:00,17.3,15.9,29.92,West,264,2.0,3.0,94,0.00,,,0.00,0.00,VWS V14.01,2013-03-22 10:48:00,
2013-03-22 04:53:00,15.7,14.0,29.93,WSW,253,3.0,3.0,93,0.00,,,0.00,0.00,VWS V14.01,2013-03-22 10:53:00,
2013-03-22 04:58:00,14.7,12.8,29.93,West,259,1.0,3.0,92,0.00,,,0.00,0.00,VWS V14.01,2013-03-22 10:58:00,
2013-03-22 05:00:00,14.5,12.9,29.93,West,259,1.0,3.0,93,0.00,,OVC080,0.00,0.00,VWS V14.01,2013-03-22 11:00:00,
2013-03-22 05:03:00,14.4,12.8,29.94,West,259,0.0,2.0,93,0.00,,,0.00,0.00,VWS V14.01,2013-03-22 11:03:00,
2013-03-22 05:08:00,14.5,12.9,29.94,West,259,0.0,2.0,93,0.00,,,0.00,0.00,VWS V14.01,2013-03-22 11:08:00,
2013-03-22 05:13:00,14.8,13.1,29.93,West,259,1.0,2.0,93,0.00,,,0.00,0.00,VWS V14.01,2013-03-22 11:13:00,
2013-03-22 05:18:00,15.3,13.6,29.94,West,269,0.0,3.0,93,0.00,,,0.00,0.00,VWS V14.01,2013-03-22 11:18:00,
2013-03-22 05:23:00,15.7,14.3,29.94,West,267,2.0,5.0,94,0.00,,,0.00,0.00,VWS V14.01,2013-03-22 11:23:00,
2013-03-22 05:28:00,16.4,15.0,29.94,WSW,253,2.0,5.0,94,0.00,,,0.00,0.00,VWS V14.01,2013-03-22 11:28:00,
2013-03-22 05:30:00,16.8,15.4,29.93,SW,229,0.0,5.0,94,0.00,,OVC080,0.00,0.00,VWS V14.01,2013-03-22 11:30:00,
2013-03-22 05:33:00,16.9,15.5,29.93,West,267,0.0,2.0,94,0.00,,,0.00,0.00,VWS V14.01,2013-03-22 11:33:00,
2013-03-22 05:38:00,16.9,15.5,29.94,South,179,3.0,6.0,94,0.00,,,0.00,0.00,VWS V14.01,2013-03-22 11:38:00,
2013-03-22 05:43:00,18.5,17.1,29.94,SSW,203,2.0,7.0,94,0.00,,,0.00,0.00,VWS V14.01,2013-03-22 11:43:00,
2013-03-22 05:48:00,18.7,17.3,29.93,SW,229,0.0,7.0,94,0.00,,,0.00,0.00,VWS V14.01,2013-03-22 11:48:00,
2013-03-22 05:53:00,18.0,16.6,29.93,SW,229,0.0,7.0,94,0.00,,,0.00,0.00,VWS V14.01,2013-03-22 11:53:00,
2013-03-22 05:58:00,17.3,15.6,29.93,NW,319,0.0,7.0,93,0.00,,,0.00,0.00,VWS V14.01,2013-03-22 11:58:00,
2013-03-22 06:00:00,17.2,15.5,29.93,NW,319,1.0,7.0,93,0.00,,OVC080,0.00,0.00,VWS V14.01,2013-03-22 12:00:00,
2013-03-22 06:03:00,17.1,15.7,29.95,NW,311,1.0,2.0,94,0.00,,,0.00,0.00,VWS V14.01,2013-03-22 12:03:00,
2013-03-22 06:08:00,17.0,15.6,29.95,West,268,0.0,3.0,94,0.00,,,0.00,0.00,VWS V14.01,2013-03-22 12:08:00,
2013-03-22 06:13:00,16.9,15.5,29.95,WSW,252,3.0,4.0,94,0.00,,,0.00,0.00,VWS V14.01,2013-03-22 12:13:00,
2013-03-22 06:18:00,16.5,14.8,29.95,WSW,244,2.0,4.0,93,0.00,,,0.00,0.00,VWS V14.01,2013-03-22 12:18:00,
2013-03-22 06:23:00,15.9,14.2,29.96,WSW,238,2.0,4.0,93,0.00,,,0.00,0.00,VWS V14.01,2013-03-22 12:23:00,
2013-03-22 06:28:00,15.2,13.5,29.96,WSW,252,3.0,4.0,93,0.00,,,0.00,0.00,VWS V14.01,2013-03-22 12:28:00,
2013-03-22 06:30:00,14.9,13.2,29.96,SW,234,2.0,4.0,93,0.00,,OVC080,0.00,0.00,VWS V14.01,2013-03-22 12:30:00,
2013-03-22 06:33:00,14.6,12.7,29.96,SW,236,1.0,4.0,92,0.00,,,0.00,0.00,VWS V14.01,2013-03-22 12:33:00,
2013-03-22 06:38:00,14.3,12.6,29.96,SW,229,3.0,4.0,93,0.00,,,0.00,0.00,VWS V14.01,2013-03-22 12:38:00,
2013-03-22 06:44:00,14.3,12.6,29.96,SW,223,0.0,4.0,93,0.00,,,0.00,0.00,VWS V14.01,2013-03-22 12:44:00,
2013-03-22 06:49:00,14.5,12.9,29.95,SW,225,2.0,4.0,93,0.00,,,0.00,0.00,VWS V14.01,2013-03-22 12:49:00,
2013-03-22 06:54:00,14.7,13.1,29.95,WSW,238,1.0,4.0,93,0.00,,,0.00,7.00,VWS V14.01,2013-03-22 12:54:00,
2013-03-22 06:59:00,15.0,13.3,29.95,WSW,251,1.0,4.0,93,0.00,,,0.00,11.00,VWS V14.01,2013-03-22 12:59:00,
2013-03-22 07:00:00,15.1,13.4,29.95,WSW,252,0.0,4.0,93,0.00,,OVC080,0.00,11.00,VWS V14.01,2013-03-22 13:00:00,
2013-03-22 07:04:00,15.2,13.5,29.97,West,270,0.0,2.0,93,0.00,,BKN044,0.00,14.00,VWS V14.01,2013-03-22 13:04:00,
2013-03-22 07:09:00,15.4,13.7,29.97,West,279,0.0,2.0,93,0.00,,BKN044,0.00,19.00,VWS V14.01,2013-03-22 13:09:00,
2013-03-22 07:14:00,15.9,14.2,29.96,West,260,1.0,2.0,93,0.00,,BKN044,0.00,54.00,VWS V14.01,2013-03-22 13:14:00,
2013-03-22 07:19:00,16.3,14.9,29.97,West,279,1.0,2.0,94,0.00,,BKN044,0.00,44.00,VWS V14.01,2013-03-22 13:19:00,
2013-03-22 07:24:00,16.7,15.3,29.96,West,278,0.0,2.0,94,0.00,,BKN044,0.00,40.00,VWS V14.01,2013-03-22 13:24:00,
2013-03-22 07:29:00,17.0,15.6,29.96,WNW,288,0.0,2.0,94,0.00,,BKN044,0.00,116.00,VWS V14.01,2013-03-22 13:29:00,
2013-03-22 07:30:00,17.1,15.7,29.96,WNW,289,0.0,2.0,94,0.00,,OVC080,0.00,120.00,VWS V14.01,2013-03-22 13:30:00,
2013-03-22 07:34:00,17.4,16.0,29.96,NW,316,0.0,1.0,94,0.00,,BKN044,0.00,109.00,VWS V14.01,2013-03-22 13:34:00,
2013-03-22 07:39:00,17.3,15.9,29.96,NE,38,0.0,2.0,94,0.00,,BKN044,0.00,116.00,VWS V14.01,2013-03-22 13:39:00,
2013-03-22 07:44:00,17.0,15.6,29.96,ESE,103,3.0,4.0,94,0.00,,BKN044,0.00,132.00,VWS V14.01,2013-03-22 13:44:00,
2013-03-22 07:49:00,15.9,14.2,29.96,ESE,110,3.0,4.0,93,0.00,,BKN044,0.00,149.00,VWS V14.01,2013-03-22 13:49:00,
2013-03-22 07:54:00,15.7,14.0,29.96,ESE,113,2.0,4.0,93,0.00,,BKN044,0.00,169.00,VWS V14.01,2013-03-22 13:54:00,
2013-03-22 07:59:00,16.0,14.3,29.96,East,91,2.0,4.0,93,0.00,,BKN044,0.00,181.00,VWS V14.01,2013-03-22 13:59:00,
2013-03-22 08:00:00,15.9,14.2,29.96,ESE,102,1.0,4.0,93,0.00,,OVC080,0.00,190.00,VWS V14.01,2013-03-22 14:00:00,
2013-03-22 08:04:00,16.0,14.3,29.97,ESE,102,0.0,1.0,93,0.00,,FEW045,0.00,200.00,VWS V14.01,2013-03-22 14:04:00,
2013-03-22 08:09:00,16.6,14.9,29.96,ESE,102,0.0,2.0,93,0.00,,FEW045,0.00,220.00,VWS V14.01,2013-03-22 14:09:00,
2013-03-22 08:14:00,17.0,15.6,29.96,ENE,57,2.0,3.0,94,0.00,,FEW045,0.00,234.00,VWS V14.01,2013-03-22 14:14:00,
2013-03-22 08:19:00,17.1,15.7,29.96,ENE,57,0.0,3.0,94,0.00,,FEW045,0.00,262.00,VWS V14.01,2013-03-22 14:19:00,
2013-03-22 08:24:00,17.2,15.8,29.96,NNE,32,1.0,3.0,94,0.00,,FEW045,0.00,279.00,VWS V14.01,2013-03-22 14:24:00,
2013-03-22 08:29:00,17.4,16.0,29.97,NNE,32,0.0,3.0,94,0.00,,FEW045,0.00,304.00,VWS V14.01,2013-03-22 14:29:00,
2013-03-22 08:30:00,17.6,16.2,29.97,NNE,32,0.0,3.0,94,0.00,,OVC080,0.00,311.00,VWS V14.01,2013-03-22 14:30:00,
2013-03-22 08:34:00,18.0,16.6,29.97,NNE,32,0.0,1.0,94,0.00,,,0.00,343.00,VWS V14.01,2013-03-22 14:34:00,
2013-03-22 08:39:00,18.5,17.1,29.97,South,190,2.0,3.0,94,0.00,,,0.00,352.00,VWS V14.01,2013-03-22 14:39:00,
2013-03-22 08:44:00,19.0,17.6,29.96,WSW,244,0.0,3.0,94,0.00,,,0.00,350.00,VWS V14.01,2013-03-22 14:44:00,
2013-03-22 08:49:00,19.9,18.7,29.96,NNE,31,1.0,3.0,95,0.00,,,0.00,343.00,VWS V14.01,2013-03-22 14:49:00,
2013-03-22 08:54:00,20.3,19.1,29.96,NNE,31,0.0,3.0,95,0.00,,,0.00,359.00,VWS V14.01,2013-03-22 14:54:00,
2013-03-22 08:59:00,20.3,19.1,29.96,NE,40,2.0,3.0,95,0.00,,,0.00,378.00,VWS V14.01,2013-03-22 14:59:00,
2013-03-22 09:00:00,20.3,19.1,29.96,NE,40,3.0,3.0,95,0.00,,OVC080,0.00,381.00,VWS V14.01,2013-03-22 15:00:00,
2013-03-22 09:04:00,20.3,19.1,29.96,East,101,4.0,4.0,95,0.00,,CLR,0.00,394.00,VWS V14.01,2013-03-22 15:04:00,
2013-03-22 09:09:00,19.7,18.5,29.96,ESE,109,5.0,6.0,95,0.00,,CLR,0.00,410.00,VWS V14.01,2013-03-22 15:09:00,
2013-03-22 09:14:00,19.1,17.7,29.96,ESE,121,4.0,6.0,94,0.01,,CLR,0.01,424.00,VWS V14.01,2013-03-22 15:14:00,
2013-03-22 09:19:00,19.0,17.6,29.96,SE,136,4.0,6.0,94,0.01,,CLR,0.01,436.00,VWS V14.01,2013-03-22 15:19:00,
2013-03-22 09:24:00,19.5,18.3,29.97,East,101,1.0,6.0,95,0.01,,CLR,0.01,452.00,VWS V14.01,2013-03-22 15:24:00,
2013-03-22 09:29:00,20.0,18.8,29.97,ESE,108,1.0,6.0,95,0.01,,CLR,0.01,462.00,VWS V14.01,2013-03-22 15:29:00,
2013-03-22 09:30:00,20.2,19.0,29.97,ESE,102,2.0,6.0,95,0.01,,OVC080,0.01,469.00,VWS V14.01,2013-03-22 15:30:00,
2013-03-22 09:34:00,20.3,19.1,29.97,ENE,70,2.0,3.0,95,0.01,,CLR,0.01,482.00,VWS V14.01,2013-03-22 15:34:00,
2013-03-22 09:39:00,20.3,19.1,29.97,ESE,107,2.0,3.0,95,0.01,,CLR,0.01,497.00,VWS V14.01,2013-03-22 15:39:00,
2013-03-22 09:44:00,20.6,19.4,29.96,ENE,67,2.0,3.0,95,0.01,,CLR,0.01,513.00,VWS V14.01,2013-03-22 15:44:00,
2013-03-22 09:49:00,20.3,19.1,29.97,NNE,24,2.0,6.0,95,0.01,,CLR,0.01,527.00,VWS V14.01,2013-03-22 15:49:00,
2013-03-22 09:54:00,20.4,19.2,29.97,NE,46,1.0,6.0,95,0.02,,CLR,0.02,536.00,VWS V14.01,2013-03-22 15:54:00,
2013-03-22 09:59:00,21.0,19.8,29.96,NE,55,0.0,6.0,95,0.02,,CLR,0.02,547.00,VWS V14.01,2013-03-22 15:59:00,
2013-03-22 10:00:00,21.3,20.1,29.97,NE,55,1.0,6.0,95,0.02,,OVC080,0.02,550.00,VWS V14.01,2013-03-22 16:00:00,
2013-03-22 10:04:00,22.4,21.4,29.96,NE,55,0.0,2.0,96,0.02,,CLR,0.02,557.00,VWS V14.01,2013-03-22 16:04:00,
2013-03-22 10:09:00,23.4,22.4,29.97,ENE,57,1.0,2.0,96,0.02,,CLR,0.02,571.00,VWS V14.01,2013-03-22 16:09:00,
2013-03-22 10:14:00,24.0,23.0,29.96,ENE,58,0.0,2.0,96,0.02,,CLR,0.02,584.00,VWS V14.01,2013-03-22 16:14:00,
2013-03-22 10:19:00,24.8,23.8,29.96,ENE,58,0.0,2.0,96,0.02,,CLR,0.02,592.00,VWS V14.01,2013-03-22 16:19:00,
2013-03-22 10:24:00,25.9,24.9,29.95,ENE,58,0.0,2.0,96,0.03,,CLR,0.03,608.00,VWS V14.01,2013-03-22 16:24:00,
2013-03-22 10:29:00,26.9,25.9,29.95,ENE,57,0.0,2.0,96,0.03,,CLR,0.03,621.00,VWS V14.01,2013-03-22 16:29:00,
2013-03-22 10:30:00,27.2,26.2,29.95,ENE,58,0.0,2.0,96,0.03,,OVC080,0.03,622.00,VWS V14.01,2013-03-22 16:30:00,
2013-03-22 10:34:00,28.1,27.1,29.94,ENE,58,0.0,1.0,96,0.02,,CLR,0.03,631.00,VWS V14.01,2013-03-22 16:34:00,
2013-03-22 10:39:00,29.2,28.5,29.93,ENE,57,0.0,1.0,97,0.02,,CLR,0.03,643.00,VWS V14.01,2013-03-22 16:39:00,
2013-03-22 10:44:00,29.2,28.5,29.93,ENE,57,0.0,2.0,97,0.02,,CLR,0.03,652.00,VWS V14.01,2013-03-22 16:44:00,
2013-03-22 10:49:00,29.1,28.1,29.94,ENE,57,1.0,2.0,96,0.03,,CLR,0.04,661.00,VWS V14.01,2013-03-22 16:49:00,
2013-03-22 10:54:00,28.3,27.3,29.94,ENE,58,1.0,3.0,96,0.03,,CLR,0.04,666.00,VWS V14.01,2013-03-22 16:54:00,
2013-03-22 10:59:00,28.1,27.1,29.94,ENE,59,1.0,3.0,96,0.03,,CLR,0.04,675.00,VWS V14.01,2013-03-22 16:59:00,
2013-03-22 11:00:00,28.2,27.2,29.94,ENE,59,1.0,3.0,96,0.03,,OVC080,0.04,677.00,VWS V14.01,2013-03-22 17:00:00,
2013-03-22 11:04:00,28.5,27.5,29.94,ENE,59,3.0,3.0,96,0.02,,CLR,0.04,682.00,VWS V14.01,2013-03-22 17:04:00,
2013-03-22 11:09:00,28.9,27.9,29.94,ENE,77,1.0,4.0,96,0.02,,CLR,0.04,687.00,VWS V14.01,2013-03-22 17:09:00,
2013-03-22 11:14:00,29.3,28.3,29.94,SE,141,5.0,5.0,96,0.02,,CLR,0.04,694.00,VWS V14.01,2013-03-22 17:14:00,
2013-03-22 11:19:00,28.9,27.9,29.94,SSE,150,4.0,6.0,96,0.02,,CLR,0.04,691.00,VWS V14.01,2013-03-22 17:19:00,
2013-03-22 11:24:00,28.9,27.9,29.94,SE,128,2.0,6.0,96,0.02,,CLR,0.04,719.00,VWS V14.01,2013-03-22 17:24:00,
2013-03-22 11:29:00,30.2,29.2,29.94,SE,128,2.0,6.0,96,0.02,,CLR,0.04,740.00,VWS V14.01,2013-03-22 17:29:00,
2013-03-22 11:30:00,30.4,29.6,29.95,SE,136,5.0,6.0,97,0.02,,OVC080,0.04,722.00,VWS V14.01,2013-03-22 17:30:00,
2013-03-22 11:34:00,30.6,29.9,29.94,South,170,2.0,6.0,97,0.01,,CLR,0.04,619.00,VWS V14.01,2013-03-22 17:34:00,
2013-03-22 11:39:00,30.6,29.6,29.94,South,173,5.0,7.0,96,0.01,,CLR,0.04,740.00,VWS V14.01,2013-03-22 17:39:00,
2013-03-22 11:44:00,30.5,29.5,29.94,South,183,5.0,7.0,96,0.01,,CLR,0.04,670.00,VWS V14.01,2013-03-22 17:44:00,
2013-03-22 11:49:00,30.4,29.4,29.95,South,173,5.0,9.0,96,0.01,,CLR,0.04,821.00,VWS V14.01,2013-03-22 17:49:00,
2013-03-22 11:54:00,30.9,29.9,29.94,SSE,166,3.0,9.0,96,0.01,,CLR,0.04,659.00,VWS V14.01,2013-03-22 17:54:00,
2013-03-22 11:59:00,31.2,30.2,29.94,SE,140,6.0,9.0,96,0.01,,CLR,0.04,691.00,VWS V14.01,2013-03-22 17:59:00,
2013-03-22 12:00:00,31.2,30.2,29.94,SE,138,6.0,9.0,96,0.01,,OVC080,0.04,807.00,VWS V14.01,2013-03-22 18:00:00,
2013-03-22 12:04:00,31.0,30.0,29.94,ESE,114,6.0,9.0,96,0.00,,FEW034,0.04,766.00,VWS V14.01,2013-03-22 18:04:00,
2013-03-22 12:10:00,30.9,29.9,29.94,ESE,122,4.0,9.0,96,0.00,,FEW034,0.04,756.00,VWS V14.01,2013-03-22 18:10:00,
2013-03-22 12:15:00,31.3,30.3,29.94,ESE,103,1.0,9.0,96,0.00,,FEW034,0.04,766.00,VWS V14.01,2013-03-22 18:15:00,
2013-03-22 12:20:00,32.0,31.0,29.94,ENE,71,4.0,9.0,96,0.00,,FEW034,0.04,793.00,VWS V14.01,2013-03-22 18:20:00,
2013-03-22 12:25:00,31.7,30.4,29.94,East,84,5.0,9.0,95,0.00,,FEW034,0.04,540.00,VWS V14.01,2013-03-22 18:25:00,
2013-03-22 12:30:00,32.5,31.2,29.93,ENE,67,5.0,9.0,95,0.00,,FEW034,0.04,742.00,VWS V14.01,2013-03-22 18:30:00,
2013-03-22 12:35:00,32.6,31.3,29.93,ENE,63,4.0,7.0,95,0.00,,BKN009,0.04,742.00,VWS V14.01,2013-03-22 18:35:00,
2013-03-22 12:40:00,32.8,31.5,29.93,ENE,71,3.0,7.0,95,0.00,,BKN009,0.04,355.00,VWS V14.01,2013-03-22 18:40:00,
2013-03-22 12:45:00,32.6,31.1,29.93,East,80,5.0,8.0,94,0.00,,BKN009,0.04,935.00,VWS V14.01,2013-03-22 18:45:00,
2013-03-22 12:50:00,32.5,31.0,29.93,ESE,108,5.0,8.0,94,0.00,,BKN009,0.04,877.00,VWS V14.01,2013-03-22 18:50:00,
2013-03-22 12:55:00,32.9,31.1,29.94,ESE,114,2.0,8.0,93,0.00,,BKN009,0.04,935.00,VWS V14.01,2013-03-22 18:55:00,
2013-03-22 13:00:00,32.9,31.1,29.94,East,86,5.0,8.0,93,0.00,,BKN009,0.04,452.00,VWS V14.01,2013-03-22 19:00:00,
2013-03-22 13:05:00,33.1,31.0,29.94,ESE,121,5.0,7.0,92,0.00,,SCT110,0.04,626.00,VWS V14.01,2013-03-22 19:05:00,
2013-03-22 13:10:00,33.4,31.3,29.94,ENE,76,2.0,7.0,92,0.00,,SCT110,0.04,512.00,VWS V14.01,2013-03-22 19:10:00,
2013-03-22 13:15:00,33.5,31.2,29.94,ENE,75,4.0,7.0,91,0.00,,SCT110,0.04,329.00,VWS V14.01,2013-03-22 19:15:00,
2013-03-22 13:20:00,32.7,30.4,29.95,ENE,67,2.0,7.0,91,0.00,,SCT110,0.04,387.00,VWS V14.01,2013-03-22 19:20:00,
2013-03-22 13:25:00,33.0,30.4,29.94,East,91,4.0,7.0,90,0.00,,SCT110,0.04,306.00,VWS V14.01,2013-03-22 19:25:00,
2013-03-22 13:30:00,33.1,30.5,29.95,ENE,74,3.0,7.0,90,0.00,,SCT110,0.04,304.00,VWS V14.01,2013-03-22 19:30:00,
2013-03-22 13:35:00,33.2,30.6,29.94,ENE,63,4.0,6.0,90,0.00,,BKN110,0.04,278.00,VWS V14.01,2013-03-22 19:35:00,
2013-03-22 13:40:00,33.1,30.2,29.94,ESE,103,1.0,9.0,89,0.00,,BKN110,0.04,308.00,VWS V14.01,2013-03-22 19:40:00,
2013-03-22 13:45:00,33.4,30.5,29.94,NE,39,5.0,9.0,89,0.00,,BKN110,0.04,255.00,VWS V14.01,2013-03-22 19:45:00,
2013-03-22 13:50:00,33.6,30.4,29.93,ENE,68,5.0,9.0,88,0.00,,BKN110,0.04,272.00,VWS V14.01,2013-03-22 19:50:00,
2013-03-22 13:55:00,33.6,30.4,29.93,NE,42,3.0,9.0,88,0.00,,BKN110,0.04,297.00,VWS V14.01,2013-03-22 19:55:00,
2013-03-22 14:00:00,33.5,30.0,29.93,NE,40,3.0,9.0,87,0.00,,BKN110,0.04,323.00,VWS V14.01,2013-03-22 20:00:00,
2013-03-22 14:05:00,33.3,29.9,29.94,NNE,26,1.0,7.0,87,0.00,,OVC014,0.04,308.00,VWS V14.01,2013-03-22 20:05:00,
2013-03-22 14:10:00,33.4,30.0,29.94,NE,40,5.0,8.0,87,0.00,,OVC014,0.04,350.00,VWS V14.01,2013-03-22 20:10:00,
2013-03-22 14:15:00,33.5,29.8,29.93,North,5,6.0,9.0,86,0.00,,OVC014,0.04,269.00,VWS V14.01,2013-03-22 20:15:00,
2013-03-22 14:20:00,33.5,29.8,29.93,NE,41,2.0,9.0,86,0.00,,OVC014,0.04,325.00,VWS V14.01,2013-03-22 20:20:00,
2013-03-22 14:25:00,33.5,29.8,29.93,North,360,5.0,9.0,86,0.00,,OVC014,0.04,359.00,VWS V14.01,2013-03-22 20:25:00,
2013-03-22 14:30:00,33.5,30.0,29.92,NE,39,8.0,10.0,87,0.00,,OVC014,0.04,524.00,VWS V14.01,2013-03-22 20:30:00,
2013-03-22 14:35:00,33.6,29.9,29.92,NNE,25,7.0,11.0,86,0.00,,OVC050,0.04,443.00,VWS V14.01,2013-03-22 20:35:00,
2013-03-22 14:40:00,33.6,29.6,29.93,NNE,23,3.0,11.0,85,0.00,,OVC050,0.04,260.00,VWS V14.01,2013-03-22 20:40:00,
2013-03-22 14:45:00,33.5,29.5,29.93,NNE,25,5.0,11.0,85,0.00,,OVC050,0.04,239.00,VWS V14.01,2013-03-22 20:45:00,
2013-03-22 14:50:00,33.4,29.1,29.93,NE,45,2.0,11.0,84,0.00,,OVC050,0.04,234.00,VWS V14.01,2013-03-22 20:50:00,
2013-03-22 14:55:00,33.6,29.0,29.93,NW,322,2.0,11.0,83,0.00,,OVC050,0.04,225.00,VWS V14.01,2013-03-22 20:55:00,
2013-03-22 15:00:00,33.7,29.1,29.93,NNE,20,4.0,11.0,83,0.00,,OVC050,0.04,141.00,VWS V14.01,2013-03-22 21:00:00,
2013-03-22 15:05:00,33.5,28.6,29.94,NW,326,4.0,7.0,82,0.00,,,0.04,102.00,VWS V14.01,2013-03-22 21:05:00,
2013-03-22 15:10:00,33.3,28.4,29.94,WNW,300,0.0,7.0,82,0.00,,,0.04,84.00,VWS V14.01,2013-03-22 21:10:00,
2013-03-22 15:15:00,33.2,28.3,29.94,WNW,302,3.0,7.0,82,0.00,,,0.04,63.00,VWS V14.01,2013-03-22 21:15:00,
2013-03-22 15:20:00,33.2,28.6,29.94,WNW,283,0.0,7.0,83,0.00,,,0.04,60.00,VWS V14.01,2013-03-22 21:20:00,
2013-03-22 15:25:00,33.4,29.1,29.94,WNW,296,3.0,7.0,84,0.00,,,0.04,67.00,VWS V14.01,2013-03-22 21:25:00,
2013-03-22 15:30:00,32.9,28.9,29.94,NW,311,3.0,7.0,85,0.00,,,0.04,70.00,VWS V14.01,2013-03-22 21:30:00,
2013-03-22 15:35:00,32.5,29.1,29.94,WNW,298,2.0,5.0,87,0.00,,,0.04,84.00,VWS V14.01,2013-03-22 21:35:00,
2013-03-22 15:40:00,32.5,29.4,29.94,NW,304,4.0,5.0,88,0.00,,,0.04,88.00,VWS V14.01,2013-03-22 21:40:00,
2013-03-22 15:45:00,32.1,29.2,29.95,NNW,333,3.0,5.0,89,0.00,,,0.04,79.00,VWS V14.01,2013-03-22 21:45:00,
2013-03-22 15:50:00,31.9,29.3,29.95,WNW,295,1.0,5.0,90,0.00,,,0.04,67.00,VWS V14.01,2013-03-22 21:50:00,
2013-03-22 15:55:00,31.9,29.3,29.96,WNW,302,2.0,5.0,90,0.00,,,0.04,60.00,VWS V14.01,2013-03-22 21:55:00,
2013-03-22 16:00:00,31.7,29.4,29.96,WNW,296,3.0,5.0,91,0.00,,,0.04,58.00,VWS V14.01,2013-03-22 22:00:00,
2013-03-22 16:05:00,31.5,29.5,29.98,West,275,2.0,4.0,92,0.00,,,0.04,49.00,VWS V14.01,2013-03-22 22:05:00,
2013-03-22 16:10:00,31.4,29.4,29.98,NW,307,0.0,4.0,92,0.00,,,0.04,42.00,VWS V14.01,2013-03-22 22:10:00,
2013-03-22 16:15:00,31.5,29.5,29.99,West,273,3.0,4.0,92,0.00,,,0.04,37.00,VWS V14.01,2013-03-22 22:15:00,
2013-03-22 16:20:00,31.5,29.7,29.99,West,259,2.0,4.0,93,0.00,,,0.04,28.00,VWS V14.01,2013-03-22 22:20:00,
2013-03-22 16:25:00,31.4,29.6,29.99,WNW,301,3.0,4.0,93,0.00,,,0.04,25.00,VWS V14.01,2013-03-22 22:25:00,
2013-03-22 16:30:00,31.2,29.4,29.99,NW,313,3.0,4.0,93,0.00,,,0.04,23.00,VWS V14.01,2013-03-22 22:30:00,
2013-03-22 16:35:00,31.2,29.4,29.99,WNW,302,3.0,3.0,93,0.00,,,0.04,21.00,VWS V14.01,2013-03-22 22:35:00,
2013-03-22 16:40:00,31.2,29.7,29.99,NW,307,2.0,3.0,94,0.00,,,0.04,21.00,VWS V14.01,2013-03-22 22:40:00,
2013-03-22 16:45:00,31.2,29.7,29.99,WNW,300,2.0,4.0,94,0.00,,,0.04,23.00,VWS V14.01,2013-03-22 22:45:00,
2013-03-22 16:50:00,31.2,29.7,29.99,NW,306,1.0,4.0,94,0.00,,,0.04,23.00,VWS V14.01,2013-03-22 22:50:00,
2013-03-22 16:55:00,31.2,29.7,30.00,NW,313,3.0,4.0,94,0.00,,,0.04,18.00,VWS V14.01,2013-03-22 22:55:00,
2013-03-22 17:00:00,31.1,29.6,30.00,WNW,290,5.0,12.0,94,0.00,,,0.04,19.00,VWS V14.01,2013-03-22 23:00:00,
2013-03-22 17:05:00,30.7,29.2,29.99,WNW,302,7.0,16.0,94,0.00,,,0.04,25.00,VWS V14.01,2013-03-22 23:05:00,
2013-03-22 17:10:00,30.6,29.3,30.00,NW,325,4.0,16.0,95,0.00,,,0.04,21.00,VWS V14.01,2013-03-22 23:10:00,
2013-03-22 17:15:00,30.6,29.3,30.00,NW,309,4.0,16.0,95,0.00,,,0.04,16.00,VWS V14.01,2013-03-22 23:15:00,
2013-03-22 17:20:00,30.5,29.2,29.99,WNW,283,10.0,16.0,95,0.00,,,0.04,21.00,VWS V14.01,2013-03-22 23:20:00,
2013-03-22 17:25:00,30.3,29.0,30.00,WNW,300,16.0,19.0,95,0.00,,,0.04,23.00,VWS V14.01,2013-03-22 23:25:00,
2013-03-22 17:30:00,30.2,29.2,30.00,WNW,286,18.0,25.0,96,0.00,,,0.04,33.00,VWS V14.01,2013-03-22 23:30:00,
2013-03-22 17:35:00,30.2,29.2,30.00,NW,319,17.0,22.0,96,0.00,,,0.04,39.00,VWS V14.01,2013-03-22 23:35:00,
2013-03-22 17:41:00,30.3,29.3,30.01,WNW,293,17.0,22.0,96,0.00,,,0.04,40.00,VWS V14.01,2013-03-22 23:41:00,
2013-03-22 17:46:00,30.1,29.1,30.01,NW,306,18.0,25.0,96,0.00,,,0.04,40.00,VWS V14.01,2013-03-22 23:46:00,
2013-03-22 17:51:00,29.7,29.0,30.01,North,355,15.0,25.0,97,0.00,,,0.04,35.00,VWS V14.01,2013-03-22 23:51:00,
2013-03-22 17:56:00,29.8,29.0,30.02,North,355,12.0,25.0,97,0.00,,,0.04,32.00,VWS V14.01,2013-03-22 23:56:00,
2013-03-22 18:00:00,29.8,29.0,30.02,NW,313,15.0,25.0,97,0.00,,OVC080,0.04,32.00,VWS V14.01,2013-03-23 00:00:00,
2013-03-22 18:01:00,29.8,29.0,30.02,NW,313,15.0,25.0,97,0.00,,,0.04,32.00,VWS V14.01,2013-03-23 00:01:00,
2013-03-22 18:06:00,29.8,29.0,30.03,NNW,336,18.0,25.0,97,0.00,,,0.04,30.00,VWS V14.01,2013-03-23 00:06:00,
2013-03-22 18:11:00,29.9,29.1,30.04,West,279,14.0,26.0,97,0.00,,,0.04,25.00,VWS V14.01,2013-03-23 00:11:00,
2013-03-22 18:16:00,29.9,29.1,30.04,NW,321,16.0,28.0,97,0.00,,,0.04,21.00,VWS V14.01,2013-03-23 00:16:00,
2013-03-22 18:21:00,29.7,29.0,30.05,NW,315,20.0,28.0,97,0.00,,,0.04,16.00,VWS V14.01,2013-03-23 00:21:00,
2013-03-22 18:26:00,29.3,28.6,30.05,North,360,18.0,28.0,97,0.00,,,0.04,14.00,VWS V14.01,2013-03-23 00:26:00,
2013-03-22 18:30:00,29.0,28.3,30.06,NNW,347,17.0,28.0,97,0.00,,OVC080,0.04,12.00,VWS V14.01,2013-03-23 00:30:00,
2013-03-22 18:31:00,29.0,28.3,30.06,NNW,333,16.0,17.0,97,0.00,,,0.04,12.00,VWS V14.01,2013-03-23 00:31:00,
2013-03-22 18:36:00,28.9,28.2,30.06,NNW,327,16.0,20.0,97,0.00,,,0.04,11.00,VWS V14.01,2013-03-23 00:36:00,
2013-03-22 18:41:00,28.9,28.2,30.07,NNW,340,9.0,20.0,97,0.00,,,0.04,11.00,VWS V14.01,2013-03-23 00:41:00,
2013-03-22 18:46:00,28.8,28.1,30.07,North,350,12.0,20.0,97,0.00,,,0.04,9.00,VWS V14.01,2013-03-23 00:46:00,
2013-03-22 18:51:00,28.8,28.1,30.07,NNW,348,12.0,20.0,97,0.00,,,0.04,7.00,VWS V14.01,2013-03-23 00:51:00,
2013-03-22 18:56:00,28.7,28.0,30.07,NNW,347,16.0,20.0,97,0.00,,,0.04,5.00,VWS V14.01,2013-03-23 00:56:00,
2013-03-22 19:00:00,28.7,28.0,30.08,North,360,12.0,20.0,97,0.00,,OVC080,0.04,0.00,VWS V14.01,2013-03-23 01:00:00,
2013-03-22 19:01:00,28.7,28.0,30.07,North,9,15.0,15.0,97,0.00,,,0.04,0.00,VWS V14.01,2013-03-23 01:01:00,
2013-03-22 19:06:00,28.7,28.0,30.08,NNW,346,13.0,17.0,97,0.00,,,0.04,0.00,VWS V14.01,2013-03-23 01:06:00,
2013-03-22 19:11:00,28.7,28.0,30.08,NNE,19,12.0,17.0,97,0.00,,,0.04,0.00,VWS V14.01,2013-03-23 01:11:00,
2013-03-22 19:16:00,28.6,27.9,30.08,North,355,7.0,17.0,97,0.00,,,0.04,0.00,VWS V14.01,2013-03-23 01:16:00,
2013-03-22 19:21:00,28.7,28.0,30.08,NNE,19,9.0,17.0,97,0.00,,,0.04,0.00,VWS V14.01,2013-03-23 01:21:00,
2013-03-22 19:27:00,28.7,28.0,30.08,North,355,5.0,17.0,97,0.00,,,0.04,0.00,VWS V14.01,2013-03-23 01:27:00,
2013-03-22 19:30:00,28.7,28.0,30.09,NW,304,6.0,17.0,97,0.00,,OVC080,0.04,0.00,VWS V14.01,2013-03-23 01:30:00,
2013-03-22 19:32:00,28.7,28.0,30.09,NNW,334,11.0,14.0,97,0.00,,,0.04,0.00,VWS V14.01,2013-03-23 01:32:00,
2013-03-22 19:37:00,28.8,28.1,30.09,NW,319,14.0,17.0,97,0.00,,,0.04,0.00,VWS V14.01,2013-03-23 01:37:00,
2013-03-22 19:42:00,28.6,27.9,30.10,NW,326,16.0,23.0,97,0.00,,,0.04,0.00,VWS V14.01,2013-03-23 01:42:00,
2013-03-22 19:47:00,28.2,27.5,30.10,North,360,12.0,23.0,97,0.00,,,0.04,0.00,VWS V14.01,2013-03-23 01:47:00,
2013-03-22 19:52:00,28.0,27.3,30.10,NNW,332,14.0,23.0,97,0.00,,,0.04,0.00,VWS V14.01,2013-03-23 01:52:00,
2013-03-22 19:57:00,27.9,27.4,30.10,NNW,347,8.0,23.0,98,0.00,,,0.04,0.00,VWS V14.01,2013-03-23 01:57:00,
2013-03-22 20:00:00,27.9,27.4,30.10,NW,323,11.0,23.0,98,0.00,,OVC080,0.04,0.00,VWS V14.01,2013-03-23 02:00:00,
2013-03-22 20:02:00,27.8,27.3,30.09,North,360,11.0,13.0,98,0.00,,,0.04,0.00,VWS V14.01,2013-03-23 02:02:00,
2013-03-22 20:07:00,27.9,27.4,30.10,NNW,331,10.0,15.0,98,0.00,,,0.04,0.00,VWS V14.01,2013-03-23 02:07:00,
2013-03-22 20:12:00,27.9,27.4,30.10,North,350,10.0,15.0,98,0.00,,,0.04,0.00,VWS V14.01,2013-03-23 02:12:00,
2013-03-22 20:17:00,27.9,27.4,30.10,NNW,332,11.0,15.0,98,0.00,,,0.04,0.00,VWS V14.01,2013-03-23 02:17:00,
2013-03-22 20:22:00,27.8,27.3,30.11,NNW,327,13.0,17.0,98,0.00,,,0.04,0.00,VWS V14.01,2013-03-23 02:22:00,
2013-03-22 20:27:00,27.5,26.8,30.11,NNW,337,18.0,20.0,97,0.00,,,0.04,0.00,VWS V14.01,2013-03-23 02:27:00,
2013-03-22 20:30:00,27.1,26.4,30.12,North,360,10.0,20.0,97,0.00,,OVC080,0.04,0.00,VWS V14.01,2013-03-23 02:30:00,
2013-03-22 20:32:00,27.0,26.3,30.12,North,9,12.0,18.0,97,0.00,,,0.04,0.00,VWS V14.01,2013-03-23 02:32:00,
2013-03-22 20:37:00,26.8,26.1,30.12,North,351,12.0,18.0,97,0.00,,,0.04,0.00,VWS V14.01,2013-03-23 02:37:00,
2013-03-22 20:42:00,26.6,25.9,30.13,NNE,17,16.0,18.0,97,0.00,,,0.04,0.00,VWS V14.01,2013-03-23 02:42:00,
2013-03-22 20:47:00,26.3,25.6,30.13,NNW,342,15.0,18.0,97,0.00,,,0.04,0.00,VWS V14.01,2013-03-23 02:47:00,
2013-03-22 20:52:00,26.0,25.3,30.14,North,360,13.0,22.0,97,0.00,,,0.04,0.00,VWS V14.01,2013-03-23 02:52:00,
2013-03-22 20:57:00,25.6,24.9,30.14,North,349,15.0,22.0,97,0.00,,,0.04,0.00,VWS V14.01,2013-03-23 02:57:00,
2013-03-22 21:00:00,25.4,24.7,30.15,NNW,333,14.0,22.0,97,0.00,,OVC080,0.04,0.00,VWS V14.01,2013-03-23 03:00:00,
2013-03-22 21:02:00,25.3,24.6,30.14,NNW,345,15.0,20.0,97,0.00,,,0.04,0.00,VWS V14.01,2013-03-23 03:02:00,
2013-03-22 21:07:00,25.2,24.5,30.14,North,11,16.0,22.0,97,0.00,,,0.04,0.00,VWS V14.01,2013-03-23 03:07:00,
2013-03-22 21:12:00,25.1,24.4,30.15,NNW,342,13.0,22.0,97,0.00,,,0.04,0.00,VWS V14.01,2013-03-23 03:12:00,
2013-03-22 21:17:00,25.1,24.4,30.15,NNW,327,16.0,22.0,97,0.00,,,0.04,0.00,VWS V14.01,2013-03-23 03:17:00,
2013-03-22 21:22:00,24.7,24.0,30.15,North,350,18.0,22.0,97,0.00,,,0.04,0.00,VWS V14.01,2013-03-23 03:22:00,
2013-03-22 21:27:00,24.5,23.8,30.15,NW,319,12.0,22.0,97,0.00,,,0.04,0.00,VWS V14.01,2013-03-23 03:27:00,
2013-03-22 21:30:00,24.4,23.7,30.16,North,355,6.0,22.0,97,0.00,,OVC080,0.04,0.00,VWS V14.01,2013-03-23 03:30:00,
2013-03-22 21:32:00,24.3,23.6,30.16,NW,317,7.0,17.0,97,0.00,,,0.04,0.00,VWS V14.01,2013-03-23 03:32:00,
2013-03-22 21:37:00,24.1,23.4,30.17,NNW,331,13.0,19.0,97,0.00,,,0.04,0.00,VWS V14.01,2013-03-23 03:37:00,
2013-03-22 21:42:00,23.9,23.2,30.17,North,360,14.0,19.0,97,0.00,,,0.04,0.00,VWS V14.01,2013-03-23 03:42:00,
2013-03-22 21:47:00,23.7,23.0,30.17,NNW,341,15.0,19.0,97,0.00,,,0.04,0.00,VWS V14.01,2013-03-23 03:47:00,
2013-03-22 21:52:00,23.6,22.9,30.18,NNW,340,14.0,19.0,97,0.00,,,0.04,0.00,VWS V14.01,2013-03-23 03:52:00,
2013-03-22 21:57:00,23.6,22.9,30.18,North,5,16.0,19.0,97,0.00,,,0.04,0.00,VWS V14.01,2013-03-23 03:57:00,
2013-03-22 22:00:00,23.6,22.9,30.18,North,355,16.0,20.0,97,0.00,,,0.04,0.00,VWS V14.01,2013-03-23 04:00:00,
2013-03-22 22:05:00,23.5,22.5,30.15,NNW,344,9.0,19.0,96,0.00,,,0.04,0.00,VWS V14.01,2013-03-23 04:05:00,
2013-03-22 22:10:00,23.3,22.3,30.16,NW,326,11.0,20.0,96,0.00,,,0.04,0.00,VWS V14.01,2013-03-23 04:10:00,
2013-03-22 22:15:00,23.2,22.2,30.16,NW,325,11.0,23.0,96,0.00,,,0.04,0.00,VWS V14.01,2013-03-23 04:15:00,
2013-03-22 22:20:00,23.1,22.1,30.16,NNW,340,18.0,23.0,96,0.00,,,0.04,0.00,VWS V14.01,2013-03-23 04:20:00,
2013-03-22 22:25:00,23.0,22.0,30.16,NNW,329,10.0,23.0,96,0.00,,,0.04,0.00,VWS V14.01,2013-03-23 04:25:00,
2013-03-22 22:30:00,22.8,21.8,30.16,North,11,15.0,23.0,96,0.00,,,0.04,0.00,VWS V14.01,2013-03-23 04:30:00,
2013-03-22 22:35:00,22.8,21.8,30.16,NNW,341,15.0,23.0,96,0.00,,,0.04,0.00,VWS V14.01,2013-03-23 04:35:00,
2013-03-22 22:40:00,22.3,21.3,30.17,NNW,340,24.0,24.0,96,0.00,,,0.04,0.00,VWS V14.01,2013-03-23 04:40:00,
2013-03-22 22:45:00,21.9,20.9,30.17,North,355,15.0,24.0,96,0.00,,,0.04,0.00,VWS V14.01,2013-03-23 04:45:00,
2013-03-22 22:50:00,21.8,20.8,30.17,North,355,12.0,24.0,96,0.00,,,0.04,0.00,VWS V14.01,2013-03-23 04:50:00,
2013-03-22 22:55:00,21.7,20.7,30.17,NNW,346,12.0,24.0,96,0.00,,,0.04,0.00,VWS V14.01,2013-03-23 04:55:00,
2013-03-22 23:00:00,21.7,20.7,30.17,NW,326,10.0,24.0,96,0.00,,,0.04,0.00,VWS V14.01,2013-03-23 05:00:00,
2013-03-22 23:05:00,21.6,20.6,30.17,North,5,15.0,21.0,96,0.00,,,0.04,0.00,VWS V14.01,2013-03-23 05:05:00,
2013-03-22 23:10:00,21.5,20.5,30.16,North,355,10.0,21.0,96,0.00,,,0.04,0.00,VWS V14.01,2013-03-23 05:10:00,
2013-03-22 23:15:00,21.4,20.4,30.17,North,355,15.0,21.0,96,0.00,,,0.04,0.00,VWS V14.01,2013-03-23 05:15:00,
2013-03-22 23:20:00,21.4,20.4,30.17,NNE,19,9.0,21.0,96,0.00,,,0.04,0.00,VWS V14.01,2013-03-23 05:20:00,
2013-03-22 23:25:00,21.3,20.3,30.18,North,355,12.0,21.0,96,0.00,,,0.04,0.00,VWS V14.01,2013-03-23 05:25:00,
2013-03-22 23:30:00,21.2,20.2,30.18,NNW,334,12.0,21.0,96,0.00,,,0.04,0.00,VWS V14.01,2013-03-23 05:30:00,
2013-03-22 23:35:00,21.1,19.9,30.18,NNW,335,12.0,17.0,95,0.00,,,0.04,0.00,VWS V14.01,2013-03-23 05:35:00,
2013-03-22 23:40:00,21.0,19.8,30.19,NNW,331,11.0,17.0,95,0.00,,,0.04,0.00,VWS V14.01,2013-03-23 05:40:00,
2013-03-22 23:45:00,21.0,19.8,30.19,NW,316,10.0,17.0,95,0.00,,,0.04,0.00,VWS V14.01,2013-03-23 05:45:00,
2013-03-22 23:50:00,21.1,19.9,30.19,NNW,347,12.0,17.0,95,0.00,,,0.04,0.00,VWS V14.01,2013-03-23 05:50:00,
2013-03-22 23:55:00,21.1,19.9,30.20,NW,325,15.0,17.0,95,0.00,,,0.04,0.00,VWS V14.01,2013-03-23 05:55:00,